Temp
72 72 70 70 69 70 70 70 69 71 70 70 70 70 70 71 71 72 71 71 71 71 70 70 69 69 69 70 71 72 72 72 72 72 73 74 74 73 73 73 73 73 73 73 73 73 74 75 75 75 73 72 72 73 74 75 75 76 74 74 74 74 75
70 71 71 72 71 71 72 72 70 70 71 70 70 70 70 70 71 71 70 70 70 70 70 70 70 69 69 70 72 72 73 73 73 75 75 74 75 75 74 74 74 74 73 74 74 74 74 75 76 73 72 72 73 73 74 75 75 75 74 74 73 73 74
69 70 70 70 70 70 70 71 72 72 71 71 71 70 70 70 71 71 70 70 70 70 71 71 71 70 70 69 71 72 72 73 73 73 74 74 74 75 75 74 74 74 74 75 75 75 76 74 75 74 72 72 72 72 73 74 73 74 74 74 74 73 72
68 69 69 70 70 71 71 70 71 71 71 71 71 71 69 70 71 71 71 71 70 70 70 71 72 71 71 70 71 72 73 73 73 74 75 74 74 75 75 74 74 74 73 74 75 76 77 75 74 75 74 73 73 73 73 74 74 74 74 74 73 73 72
68 68 68 68 69 69 69 70 70 70 70 71 71 71 70 71 71 72 71 71 70 69 71 72 72 72 72 71 71 73 74 74 74 74 75 75 75 75 75 74 74 74 74 74 74 75 76 75 75 75 75 74 73 73 73 74 73 73 73 74 73 74 73
67 66 66 67 67 68 69 69 69 69 69 69 70 70 70 71 71 71 72 71 70 70 71 71 71 72 71 71 72 72 74 75 75 75 75 76 75 75 75 75 74 74 73 73 74 74 75 74 74 75 74 75 75 74 73 73 73 72 72 73 73 74 73
65 66 65 66 67 68 68 69 69 69 69 69 69 70 70 69 70 70 71 71 71 69 70 70 71 70 71 71 72 73 74 75 75 75 76 76 76 75 75 75 76 74 74 73 73 74 73 73 73 73 74 74 75 74 73 73 72 73 73 73 73 73 74
65 65 66 67 67 68 67 67 68 68 68 68 68 69 69 69 70 70 70 70 71 71 70 69 70 71 71 71 72 72 73 73 73 72 72 72 73 74 75 75 74 75 74 73 73 73 73 73 73 73 73 73 74 74 74 73 73 73 74 73 73 73 74
65 65 65 66 66 66 66 66 66 67 68 68 68 69 69 70 70 71 71 71 71 71 70 70 70 71 70 70 70 72 71 69 70 71 70 70 70 71 72 74 75 75 74 74 73 73 72 72 73 73 73 73 73 73 74 74 73 73 74 73 73 73 74
63 64 65 66 66 66 65 66 66 66 67 68 68 69 70 70 71 72 72 73 73 73 73 72 70 70 70 70 70 71 70 69 69 70 71 70 71 70 71 71 71 72 73 74 73 73 73 72 72 73 72 72 73 73 73 74 74 74 74 74 74 73 73
64 64 64 64 65 65 66 66 66 67 67 68 69 69 70 71 71 72 73 75 74 72 72 72 71 70 70 71 71 71 67 68 68 68 69 71 72 71 70 70 70 70 71 73 73 73 73 73 73 72 72 72 73 73 73 73 74 74 74 74 74 74 74
65 64 64 64 64 65 65 65 65 67 67 68 69 69 69 70 70 71 72 73 75 74 73 73 73 73 73 73 72 72 71 68 67 69 71 72 71 70 71 70 71 71 71 72 72 73 73 73 72 73 72 72 72 72 72 72 72 72 73 74 74 74 74
65 64 65 66 65 64 64 66 68 68 68 68 69 69 69 69 70 71 71 72 73 72 74 74 74 73 73 74 73 73 73 73 71 71 71 71 72 72 71 70 70 70 70 71 72 72 72 72 71 72 72 72 72 72 72 72 72 71 71 72 73 74 74
68 64 65 64 65 65 67 67 66 67 68 68 68 68 68 68 69 69 70 70 71 72 72 73 72 72 72 72 73 72 73 73 74 74 73 73 73 72 72 72 72 70 71 72 70 71 71 71 71 71 72 72 72 72 72 71 71 71 71 72 72 73 73
65 64 64 64 65 65 65 66 67 67 69 69 67 67 67 68 67 67 68 69 69 70 71 70 70 70 71 71 71 72 72 73 73 74 73 73 73 73 73 73 73 73 72 71 71 72 72 71 70 71 71 72 72 72 72 72 71 71 71 71 72 73 73
67 66 65 65 65 65 66 66 65 66 67 68 67 67 67 66 66 66 67 68 68 68 70 69 69 69 69 69 70 71 72 72 72 72 72 72 72 72 72 72 72 72 72 72 71 71 71 70 71 71 71 71 72 72 72 72 72 73 74 74 73 72 73
67 66 66 65 65 65 66 66 66 66 67 68 67 68 67 66 65 66 66 67 67 68 68 68 68 68 67 68 69 69 70 71 71 71 71 71 71 72 72 72 72 72 71 71 71 71 71 71 69 69 70 71 71 71 72 73 73 74 71 71 73 74 73
68 67 66 66 65 65 66 66 65 66 68 68 68 68 67 66 66 66 68 67 68 68 68 67 67 67 67 68 68 69 69 70 70 70 70 69 70 71 71 71 71 71 70 71 71 71 71 70 71 70 70 69 69 69 70 71 73 70 69 70 70 74 74
69 67 67 65 66 66 65 65 66 67 68 67 66 66 67 67 66 67 68 67 69 68 68 68 67 66 67 67 67 68 68 68 68 69 69 69 69 70 71 71 70 70 70 70 71 71 71 71 71 70 69 69 68 69 70 70 72 68 69 68 68 69 74
68 67 67 66 65 66 66 67 68 68 69 69 68 67 68 68 69 69 68 69 67 67 66 66 67 67 67 67 67 67 67 67 68 68 68 68 69 69 69 70 70 70 70 70 70 70 70 70 70 70 69 69 69 69 70 70 72 68 67 67 67 67 69
72 71 69 68 67 67 67 68 68 67 66 66 68 68 68 70 69 69 69 68 67 67 67 67 66 67 67 67 68 67 67 67 67 67 68 68 68 68 68 69 69 69 70 70 70 70 70 70 69 70 71 71 70 69 70 70 70 67 66 66 65 66 70
69 68 68 68 67 68 69 70 70 68 67 68 68 69 69 67 68 68 68 67 67 67 67 66 67 67 67 67 67 67 67 67 66 66 67 67 67 67 67 68 68 69 70 71 70 70 70 70 70 70 70 70 70 70 70 70 68 66 65 65 65 66 69
73 71 70 70 71 68 68 71 68 68 68 67 68 68 68 68 67 66 66 66 66 66 67 67 67 67 68 68 67 68 68 67 66 66 66 67 66 66 67 68 68 69 70 69 69 69 68 69 70 70 70 70 70 69 69 70 68 65 64 63 63 65 67
75 74 74 72 70 70 69 69 70 69 69 67 66 68 67 66 66 65 65 66 65 65 66 66 67 67 68 68 68 68 68 68 67 66 66 66 66 67 67 68 68 68 70 69 69 68 68 69 69 70 70 70 70 70 69 69 71 65 62 62 62 66 68
74 74 73 72 72 71 70 69 70 68 66 66 67 66 65 65 65 66 65 66 65 65 65 66 67 67 67 68 69 68 68 68 68 67 66 66 66 67 67 67 68 69 69 68 69 69 69 70 69 70 70 70 70 73 72 70 72 65 62 62 61 64 68
70 71 72 72 73 71 69 68 69 69 68 67 66 66 65 65 65 66 66 66 65 65 65 66 67 67 68 68 68 68 68 69 69 68 67 67 67 67 66 68 68 68 68 68 68 68 68 69 70 69 69 70 70 70 71 70 70 70 63 61 61 61 67
70 70 70 71 70 72 69 68 67 68 69 67 66 66 65 65 65 64 65 65 64 65 66 67 67 67 68 67 67 68 68 68 68 68 68 68 67 67 68 68 67 67 67 68 67 67 67 68 68 68 68 69 69 69 69 70 70 70 64 61 60 60 64
70 71 71 71 71 71 69 69 67 67 69 68 67 66 65 64 65 65 64 63 64 66 67 67 67 67 67 66 66 67 68 68 68 69 69 69 68 67 66 66 67 67 67 67 66 66 67 67 68 68 68 68 68 69 68 70 73 71 67 62 59 58 60
66 67 68 69 69 71 72 68 67 66 66 67 66 66 65 64 64 64 64 63 65 66 66 66 66 66 66 66 66 67 67 67 67 68 68 68 68 67 66 66 66 66 66 66 65 65 66 66 67 67 66 67 67 68 69 69 71 71 71 67 61 58 57
65 67 68 70 70 69 70 67 66 64 64 65 65 65 65 64 63 64 64 64 66 66 66 65 65 65 65 65 65 65 66 66 67 67 67 67 67 66 66 65 65 65 66 65 65 64 64 65 66 66 66 66 66 68 67 68 69 71 70 70 64 60 57
65 65 66 66 67 67 67 66 64 63 63 64 65 65 64 64 63 64 64 65 66 65 65 65 65 64 64 64 64 64 65 65 65 66 66 66 66 65 65 65 65 64 65 64 63 63 63 64 65 65 65 66 66 66 67 67 67 68 70 69 67 62 59
64 64 65 66 65 65 65 64 63 63 63 64 64 64 65 64 63 63 64 65 65 65 65 64 64 64 64 64 64 64 64 64 64 65 65 66 66 65 65 65 65 64 64 63 63 63 63 63 64 64 65 65 65 65 66 67 66 67 68 71 71 69 63
63 63 63 63 64 64 63 62 62 63 63 63 64 64 64 63 64 64 64 64 65 65 64 63 63 63 63 62 63 63 63 63 63 64 65 64 65 65 65 65 64 64 64 63 62 62 63 63 64 64 64 64 64 65 65 66 66 66 66 67 68 69 70
61 62 63 63 63 63 62 63 62 62 62 62 63 63 63 63 64 64 64 65 65 65 63 63 63 63 62 62 62 63 63 63 66 65 63 63 63 63 63 64 64 63 63 63 63 62 62 63 63 63 63 63 64 64 64 65 65 66 66 66 68 69 69
60 61 62 62 63 63 62 62 62 62 62 62 62 62 62 62 63 63 63 64 64 64 63 63 64 63 62 62 62 62 63 63 63 62 62 62 63 63 63 63 63 64 64 65 64 63 64 63 64 65 65 64 64 63 63 65 65 67 64 66 61 63 66
60 61 62 63 64 63 62 62 61 61 62 61 61 62 62 63 62 63 64 64 64 63 62 63 62 62 61 61 61 62 62 62 62 62 62 62 62 62 63 66 62 61 63 64 67 65 60 57 62 65 65 64 64 65 64 65 67 63 55 51 51 51 51
60 60 61 63 62 61 60 60 62 61 61 61 62 62 62 62 62 62 62 63 63 62 62 62 62 61 60 61 61 62 62 62 61 61 61 61 61 62 62 63 65 56 55 57 63 59 54 50 50 51 54 58 61 63 61 60 57 53 50 49 48 47 48
61 61 61 62 62 60 60 60 61 60 60 61 61 60 61 62 62 61 61 62 62 62 62 62 61 60 60 60 60 61 61 61 61 62 62 62 62 62 62 62 62 63 59 56 55 54 52 49 48 48 49 51 53 58 61 58 54 51 48 48 47 46 46
MSLP
1016.35 1016.27 1016.31 1016.15 1015.95 1015.55 1015.15 1014.83 1015.11 1015.07 1014.95 1014.91 1014.39 1014.47 1014.43 1014.23 1014.07 1013.95 1013.87 1013.71 1013.43 1013.47 1014.03 1014.87 1016.47 1017.27 1016.83 1015.75 1015.07 1014.83 1014.51 1014.35 1014.35 1014.51 1014.47 1014.15 1013.91 1013.75 1013.71 1013.59 1013.59 1013.51 1013.47 1013.63 1013.59 1013.59 1013.47 1013.35 1013.31 1013.11 1012.87 1012.67 1012.71 1013.03 1013.43 1013.63 1013.75 1013.75 1013.91 1014.07 1014.35 1014.67 1014.71
1016.91 1016.75 1016.75 1016.63 1016.59 1016.27 1015.79 1015.35 1015.23 1015.27 1015.11 1015.35 1014.91 1014.55 1014.47 1014.59 1014.43 1014.11 1013.91 1014.23 1014.43 1014.39 1013.99 1014.39 1015.35 1015.59 1015.35 1014.91 1014.51 1014.39 1014.35 1014.23 1014.11 1013.99 1013.87 1013.67 1013.39 1013.23 1013.19 1013.27 1013.35 1013.35 1013.31 1013.31 1013.35 1013.35 1013.35 1013.27 1013.11 1012.99 1012.87 1012.91 1013.07 1013.07 1013.07 1013.11 1013.19 1013.39 1013.71 1013.91 1014.19 1014.39 1014.47
1017.63 1017.47 1017.43 1017.23 1017.07 1016.79 1016.35 1015.79 1015.63 1015.51 1015.55 1015.67 1015.51 1015.19 1014.87 1014.91 1015.07 1014.91 1014.43 1014.31 1014.51 1014.79 1014.75 1014.31 1013.99 1014.15 1014.59 1014.75 1014.75 1014.51 1014.39 1014.23 1014.15 1013.99 1013.87 1013.67 1013.39 1013.11 1012.91 1012.99 1013.03 1013.11 1013.03 1013.03 1013.07 1013.15 1013.07 1013.23 1013.07 1012.75 1012.79 1013.07 1013.07 1012.95 1012.79 1012.91 1013.11 1013.31 1013.47 1013.67 1013.91 1014.15 1014.31
1018.35 1018.23 1017.95 1017.55 1017.27 1017.03 1016.71 1016.39 1016.03 1015.79 1015.67 1015.71 1015.67 1015.47 1015.27 1015.23 1015.15 1015.19 1015.07 1014.51 1014.39 1014.47 1014.43 1014.23 1014.07 1014.31 1014.87 1015.19 1015.07 1014.59 1014.31 1014.03 1013.79 1013.67 1013.51 1013.35 1013.23 1012.99 1012.99 1012.87 1012.87 1012.83 1012.99 1012.99 1012.83 1012.87 1012.87 1013.07 1013.23 1012.79 1012.71 1012.75 1012.71 1012.75 1012.83 1012.87 1012.79 1012.83 1012.99 1013.23 1013.59 1013.75 1013.91
1018.59 1018.35 1018.23 1018.07 1017.83 1017.55 1017.23 1016.83 1016.39 1015.87 1015.63 1015.51 1015.55 1015.55 1015.55 1015.39 1015.31 1015.47 1015.59 1014.95 1014.23 1013.99 1013.75 1014.19 1014.51 1014.39 1014.47 1014.59 1014.59 1014.35 1014.07 1013.83 1013.51 1013.23 1013.07 1012.87 1012.75 1012.75 1012.87 1012.83 1012.71 1012.71 1012.63 1012.63 1012.67 1012.71 1012.71 1012.79 1012.83 1012.75 1012.67 1012.63 1012.67 1012.75 1012.83 1012.79 1012.75 1012.75 1012.99 1013.11 1013.35 1013.43 1013.67
1018.91 1018.75 1018.59 1018.43 1018.23 1017.91 1017.47 1017.07 1016.71 1016.39 1016.03 1015.91 1015.87 1015.79 1015.67 1015.55 1015.43 1015.67 1015.71 1015.03 1014.27 1013.91 1013.75 1014.07 1014.47 1014.39 1014.23 1014.15 1014.19 1014.03 1013.71 1013.31 1012.99 1012.71 1012.63 1012.47 1012.43 1012.51 1012.51 1012.39 1012.39 1012.39 1012.43 1012.43 1012.39 1012.47 1012.51 1012.63 1012.63 1012.55 1012.63 1012.59 1012.55 1012.63 1012.67 1012.71 1012.71 1012.79 1012.87 1012.95 1013.07 1013.15 1013.39
1018.91 1018.71 1018.71 1018.63 1018.43 1018.23 1017.83 1017.39 1016.95 1016.55 1016.23 1016.03 1015.87 1015.79 1015.79 1015.79 1015.91 1016.07 1015.63 1014.99 1014.39 1014.11 1014.07 1014.35 1014.55 1014.35 1014.31 1014.03 1013.83 1013.71 1013.51 1013.11 1012.79 1012.63 1012.31 1012.27 1012.15 1012.19 1012.03 1011.95 1011.95 1012.03 1012.03 1012.15 1012.39 1012.31 1012.47 1012.59 1012.59 1012.55 1012.47 1012.51 1012.51 1012.47 1012.51 1012.51 1012.59 1012.63 1012.71 1012.79 1012.87 1012.87 1012.99
1018.83 1018.83 1018.71 1018.63 1018.47 1018.27 1018.03 1017.63 1017.23 1016.83 1016.51 1016.23 1016.03 1015.87 1015.79 1015.71 1015.87 1015.91 1015.71 1015.03 1014.39 1014.03 1013.87 1014.27 1014.43 1014.31 1014.27 1014.03 1013.71 1013.55 1013.39 1013.99 1014.11 1014.15 1013.99 1013.79 1013.07 1012.47 1011.87 1011.71 1011.67 1011.67 1011.79 1012.07 1012.03 1012.15 1012.31 1012.39 1012.39 1012.47 1012.51 1012.47 1012.47 1012.47 1012.39 1012.31 1012.23 1012.23 1012.31 1012.47 1012.55 1012.67 1012.71
1018.87 1018.71 1018.67 1018.51 1018.35 1018.15 1017.87 1017.55 1017.23 1016.95 1016.63 1016.35 1016.11 1015.99 1015.75 1015.71 1015.87 1015.75 1015.47 1015.23 1014.75 1014.23 1014.03 1014.19 1014.43 1014.51 1014.35 1014.15 1013.87 1013.71 1014.59 1015.03 1014.55 1014.15 1013.87 1013.83 1013.95 1013.99 1013.27 1012.19 1011.75 1011.63 1011.79 1011.83 1011.83 1011.87 1012.03 1012.11 1012.15 1012.23 1012.35 1012.43 1012.39 1012.39 1012.39 1012.27 1012.19 1012.07 1012.07 1012.15 1012.23 1012.35 1012.47
1018.95 1018.83 1018.67 1018.43 1018.19 1018.03 1017.75 1017.43 1017.15 1016.87 1016.59 1016.35 1016.19 1016.11 1016.03 1015.87 1015.75 1015.59 1015.43 1015.31 1014.99 1014.47 1013.79 1014.35 1014.95 1014.43 1014.43 1014.23 1013.99 1014.47 1014.99 1014.67 1014.15 1013.63 1013.35 1013.51 1013.31 1013.35 1013.63 1013.71 1013.43 1013.03 1012.39 1011.79 1011.75 1011.79 1011.75 1011.87 1011.95 1012.03 1012.11 1012.27 1012.35 1012.31 1012.27 1012.19 1012.11 1012.03 1011.99 1012.11 1012.15 1012.23 1012.23
1018.79 1018.67 1018.51 1018.23 1017.99 1017.75 1017.51 1017.27 1017.11 1016.99 1016.79 1016.55 1016.31 1016.15 1016.07 1015.99 1015.99 1015.95 1015.79 1015.47 1015.43 1014.95 1014.47 1013.95 1014.59 1015.19 1014.75 1014.27 1013.99 1014.23 1015.15 1014.67 1014.23 1013.63 1013.27 1013.31 1013.31 1013.19 1013.19 1013.23 1013.39 1013.35 1013.03 1012.27 1011.83 1011.67 1011.71 1011.71 1011.71 1011.95 1012.03 1012.15 1012.15 1012.15 1012.15 1012.07 1011.95 1011.95 1011.95 1011.91 1011.95 1012.11 1012.19
1018.43 1018.23 1018.03 1017.95 1017.87 1017.63 1017.55 1017.39 1017.11 1016.87 1016.67 1016.47 1016.31 1016.23 1016.07 1015.99 1015.99 1015.95 1015.79 1015.63 1015.31 1015.39 1015.15 1014.79 1014.35 1014.51 1014.71 1014.35 1014.07 1013.83 1014.31 1015.11 1014.87 1014.11 1013.63 1013.19 1013.27 1013.63 1013.19 1012.67 1012.67 1012.95 1012.91 1012.55 1012.11 1011.71 1011.59 1011.67 1011.75 1011.83 1011.95 1011.99 1011.95 1011.91 1011.87 1011.79 1011.87 1012.03 1011.99 1011.83 1011.79 1011.91 1012.03
1018.11 1017.91 1017.75 1017.63 1017.63 1017.55 1017.43 1017.31 1017.15 1016.83 1016.51 1016.35 1016.19 1016.11 1016.03 1015.99 1015.95 1015.91 1015.95 1015.95 1015.75 1015.59 1015.43 1015.07 1014.79 1014.59 1014.51 1014.35 1014.15 1013.83 1013.71 1013.75 1013.91 1013.75 1013.47 1013.11 1012.75 1012.91 1012.63 1012.19 1012.35 1012.91 1013.27 1012.83 1012.19 1011.95 1011.67 1011.59 1011.75 1011.75 1011.79 1011.75 1011.67 1011.67 1011.63 1011.63 1011.59 1011.79 1011.95 1011.83 1011.67 1011.67 1011.79
1018.07 1017.99 1017.87 1017.63 1017.43 1017.39 1017.35 1017.19 1016.83 1016.59 1016.39 1016.19 1016.11 1015.91 1015.83 1015.83 1015.91 1015.99 1016.03 1016.19 1016.07 1015.83 1015.63 1015.27 1014.95 1014.71 1014.51 1014.47 1014.27 1014.03 1013.67 1013.47 1013.27 1013.15 1013.03 1012.87 1012.63 1012.47 1012.31 1012.11 1012.31 1012.51 1012.31 1012.19 1012.07 1011.87 1011.63 1011.59 1011.79 1011.83 1011.79 1011.59 1011.39 1011.19 1011.07 1011.07 1011.07 1011.03 1010.99 1011.03 1011.15 1011.31 1011.35
1018.27 1018.07 1017.75 1017.51 1017.27 1017.07 1016.95 1016.75 1016.55 1016.47 1016.31 1016.15 1016.03 1015.91 1015.67 1015.55 1015.55 1015.71 1015.83 1015.99 1016.03 1015.91 1015.79 1015.47 1015.27 1014.99 1014.71 1014.47 1014.43 1014.19 1013.79 1013.47 1013.27 1013.07 1012.87 1012.71 1012.59 1012.43 1012.27 1012.11 1011.91 1011.71 1011.71 1011.75 1011.75 1011.51 1011.43 1011.75 1012.15 1012.07 1011.71 1011.15 1010.75 1010.51 1010.39 1010.47 1010.43 1010.43 1010.55 1010.67 1010.71 1010.79 1010.99
1018.15 1017.87 1017.47 1017.27 1017.03 1016.87 1016.63 1016.47 1016.43 1016.47 1016.35 1016.15 1016.07 1015.83 1015.67 1015.63 1015.59 1015.59 1015.67 1015.75 1015.75 1015.75 1015.55 1015.47 1015.35 1015.19 1014.95 1014.67 1014.35 1014.11 1013.83 1013.55 1013.35 1013.23 1012.99 1012.83 1012.67 1012.43 1012.23 1012.07 1011.87 1011.71 1011.55 1011.47 1011.47 1011.47 1011.59 1012.07 1011.91 1011.43 1010.79 1010.35 1010.19 1010.27 1010.43 1010.51 1010.39 1010.31 1010.39 1010.55 1010.71 1010.75 1010.63
1018.07 1017.67 1017.31 1016.91 1016.79 1016.59 1016.51 1016.31 1016.39 1016.59 1016.39 1016.27 1016.11 1015.83 1015.63 1015.63 1015.55 1015.51 1015.43 1015.39 1015.39 1015.35 1015.23 1015.15 1015.15 1015.07 1014.99 1014.79 1014.35 1014.03 1013.75 1013.63 1013.47 1013.27 1013.19 1012.95 1012.71 1012.51 1012.31 1012.07 1011.87 1011.75 1011.59 1011.47 1011.43 1011.47 1011.43 1011.55 1011.51 1010.87 1010.35 1010.27 1010.43 1010.63 1010.55 1010.35 1010.19 1010.11 1010.19 1010.31 1010.31 1010.35 1010.47
1017.67 1017.35 1017.15 1016.79 1016.67 1016.75 1016.63 1016.35 1016.55 1016.59 1016.43 1016.15 1015.79 1015.55 1015.51 1015.43 1015.35 1015.35 1015.35 1015.23 1015.15 1015.03 1014.95 1014.95 1014.91 1014.95 1014.91 1014.67 1014.43 1014.15 1013.95 1013.75 1013.55 1013.39 1013.23 1013.07 1012.91 1012.63 1012.39 1012.15 1011.95 1011.83 1011.67 1011.51 1011.43 1011.35 1011.27 1011.39 1011.19 1010.63 1010.35 1010.51 1010.51 1010.43 1010.35 1010.23 1009.91 1009.87 1009.91 1009.91 1009.95 1009.99 1010.07
1016.95 1016.91 1016.71 1016.51 1016.95 1016.67 1016.75 1016.87 1016.51 1016.27 1015.99 1015.71 1015.59 1015.51 1015.31 1015.27 1015.39 1015.39 1015.27 1015.23 1015.03 1014.91 1014.87 1014.83 1014.79 1014.79 1014.75 1014.59 1014.47 1014.31 1014.11 1013.91 1013.75 1013.59 1013.31 1013.07 1012.91 1012.67 1012.43 1012.27 1012.11 1011.91 1011.71 1011.55 1011.31 1011.23 1011.27 1011.15 1010.95 1010.63 1010.39 1010.47 1010.55 1010.43 1010.23 1010.07 1009.67 1009.79 1009.87 1009.95 1009.95 1009.91 1009.83
1016.67 1016.51 1016.71 1016.83 1016.75 1016.95 1016.79 1016.43 1016.23 1015.91 1015.67 1015.59 1015.47 1015.39 1015.27 1015.31 1015.31 1015.27 1015.11 1015.07 1014.99 1015.03 1015.03 1014.87 1014.75 1014.67 1014.59 1014.47 1014.47 1014.31 1014.15 1013.95 1013.83 1013.71 1013.43 1013.11 1012.83 1012.67 1012.51 1012.35 1012.19 1011.87 1011.59 1011.43 1011.27 1011.27 1011.11 1010.95 1010.79 1010.51 1010.39 1010.31 1010.35 1010.23 1010.03 1009.87 1009.51 1009.43 1009.47 1009.51 1009.55 1009.63 1009.75
1016.95 1016.91 1017.23 1017.15 1017.07 1016.83 1016.67 1016.39 1016.15 1015.91 1015.87 1015.87 1015.71 1015.55 1015.39 1015.31 1015.19 1015.11 1015.03 1015.03 1015.07 1014.99 1014.95 1014.83 1014.79 1014.71 1014.59 1014.47 1014.27 1014.19 1014.11 1013.99 1013.87 1013.71 1013.43 1013.11 1012.87 1012.67 1012.51 1012.31 1012.07 1011.87 1011.59 1011.39 1011.27 1011.19 1011.03 1010.79 1010.63 1010.31 1010.15 1010.07 1010.03 1010.07 1009.91 1009.59 1009.31 1009.31 1009.23 1009.19 1009.15 1009.15 1009.39
1017.27 1017.19 1017.39 1017.15 1016.99 1016.79 1016.51 1016.27 1016.11 1016.11 1016.15 1015.95 1015.71 1015.59 1015.51 1015.55 1015.31 1015.27 1015.27 1015.03 1015.07 1015.03 1014.91 1014.87 1014.79 1014.63 1014.51 1014.39 1014.23 1014.11 1013.95 1013.83 1013.75 1013.63 1013.43 1013.19 1012.95 1012.75 1012.55 1012.23 1011.99 1011.79 1011.43 1011.23 1011.07 1010.83 1010.67 1010.51 1010.39 1010.23 1009.99 1009.83 1009.83 1009.87 1009.79 1009.43 1009.23 1009.19 1009.11 1008.99 1008.91 1008.99 1009.15
1017.03 1017.03 1016.99 1016.83 1016.63 1016.55 1016.19 1016.11 1016.23 1016.15 1016.03 1015.91 1015.71 1015.75 1015.67 1015.51 1015.39 1015.43 1015.39 1015.31 1015.11 1014.99 1014.95 1014.91 1014.87 1014.63 1014.39 1014.27 1014.07 1013.87 1013.71 1013.63 1013.59 1013.51 1013.31 1013.15 1012.99 1012.79 1012.51 1012.23 1011.87 1011.55 1011.19 1011.19 1010.99 1010.95 1010.95 1010.79 1010.39 1009.95 1009.75 1009.63 1009.59 1009.71 1009.59 1009.35 1009.07 1008.95 1008.83 1008.79 1008.83 1008.99 1008.95
1016.99 1016.99 1017.07 1017.03 1016.83 1016.75 1016.71 1016.43 1016.11 1015.95 1015.83 1015.91 1015.83 1015.75 1015.67 1015.55 1015.59 1015.55 1015.39 1015.27 1015.11 1015.07 1015.03 1014.95 1014.91 1014.59 1014.35 1014.11 1013.83 1013.63 1013.47 1013.35 1013.31 1013.27 1013.15 1013.03 1012.99 1012.71 1012.39 1012.03 1011.71 1011.47 1011.03 1011.03 1010.87 1010.79 1010.59 1010.19 1010.03 1009.67 1009.39 1009.31 1009.27 1009.23 1009.31 1009.15 1008.79 1008.67 1008.63 1008.55 1008.59 1008.75 1008.79
1017.15 1017.07 1016.91 1016.87 1016.87 1016.79 1016.63 1016.39 1016.15 1016.03 1015.91 1015.91 1016.07 1015.83 1015.71 1015.63 1015.47 1015.39 1015.47 1015.35 1015.27 1015.19 1015.15 1015.03 1014.79 1014.55 1014.27 1013.95 1013.63 1013.39 1013.23 1013.07 1012.99 1012.99 1012.87 1012.83 1012.67 1012.47 1012.27 1011.99 1011.67 1011.23 1010.91 1010.71 1010.55 1010.39 1010.11 1009.91 1009.83 1009.47 1009.07 1008.83 1008.79 1008.75 1008.83 1008.71 1008.51 1008.39 1008.35 1008.27 1008.27 1008.43 1008.51
1017.31 1017.15 1016.95 1016.75 1016.55 1016.39 1016.31 1016.11 1016.03 1016.07 1016.11 1016.11 1015.99 1015.71 1015.67 1015.59 1015.55 1015.55 1015.47 1015.39 1015.31 1015.31 1015.19 1014.91 1014.63 1014.31 1014.03 1013.75 1013.51 1013.27 1013.07 1012.87 1012.75 1012.63 1012.59 1012.51 1012.31 1012.15 1011.99 1011.67 1011.47 1011.19 1010.91 1010.63 1010.39 1010.19 1009.87 1009.67 1009.51 1009.35 1008.91 1008.47 1008.43 1008.47 1008.39 1008.39 1008.15 1007.99 1008.03 1007.95 1007.91 1007.99 1008.11
1017.23 1017.03 1017.03 1016.83 1016.67 1016.27 1016.23 1016.19 1016.19 1016.27 1016.23 1016.07 1015.95 1015.87 1015.71 1015.59 1015.59 1015.63 1015.51 1015.43 1015.43 1015.35 1014.99 1014.55 1014.27 1014.11 1013.91 1013.71 1013.51 1013.27 1013.03 1012.79 1012.67 1012.47 1012.23 1012.11 1011.99 1011.83 1011.67 1011.51 1011.39 1011.15 1010.91 1010.67 1010.27 1010.07 1009.83 1009.55 1009.31 1009.15 1008.83 1008.47 1008.23 1008.19 1008.11 1007.99 1007.87 1007.55 1007.55 1007.59 1007.59 1007.67 1007.79
1017.31 1017.11 1016.87 1016.71 1016.55 1016.47 1016.51 1016.43 1016.39 1016.27 1016.11 1016.11 1016.03 1015.75 1015.63 1015.55 1015.67 1015.67 1015.59 1015.55 1015.51 1015.15 1014.63 1014.39 1014.23 1014.03 1013.91 1013.75 1013.55 1013.31 1013.07 1012.83 1012.55 1012.31 1012.07 1011.79 1011.67 1011.67 1011.59 1011.35 1011.11 1010.95 1010.75 1010.51 1010.31 1010.11 1009.83 1009.47 1009.19 1009.03 1008.75 1008.39 1008.11 1007.95 1007.79 1007.55 1007.47 1007.39 1007.15 1007.19 1007.23 1007.31 1007.39
1017.67 1017.59 1017.47 1017.23 1017.11 1016.83 1016.75 1016.79 1016.67 1016.51 1016.43 1016.11 1015.87 1015.75 1015.59 1015.67 1015.75 1015.71 1015.63 1015.63 1015.31 1014.79 1014.55 1014.43 1014.27 1014.11 1013.95 1013.79 1013.59 1013.39 1013.19 1012.91 1012.67 1012.39 1012.07 1011.79 1011.55 1011.47 1011.39 1011.15 1011.03 1010.79 1010.55 1010.39 1010.23 1010.07 1009.83 1009.47 1009.15 1008.99 1008.79 1008.43 1008.03 1007.71 1007.55 1007.39 1007.19 1007.07 1006.91 1006.71 1006.79 1006.87 1006.99
1017.59 1017.59 1017.55 1017.39 1017.23 1017.11 1016.91 1016.95 1016.79 1016.67 1016.39 1016.15 1015.95 1015.79 1015.67 1015.75 1015.87 1015.75 1015.71 1015.55 1014.95 1014.79 1014.63 1014.47 1014.27 1014.15 1014.03 1013.87 1013.67 1013.43 1013.19 1012.91 1012.59 1012.31 1012.07 1011.83 1011.55 1011.35 1011.19 1010.99 1010.83 1010.63 1010.43 1010.23 1010.15 1009.99 1009.79 1009.47 1009.11 1008.95 1008.83 1008.55 1008.07 1007.59 1007.39 1007.19 1007.03 1006.79 1006.63 1006.43 1006.27 1006.35 1006.47
1018.03 1017.99 1017.83 1017.63 1017.47 1017.15 1017.03 1017.11 1017.11 1016.87 1016.63 1016.31 1016.07 1015.87 1015.79 1015.75 1015.91 1015.87 1015.79 1015.35 1014.99 1014.91 1014.75 1014.59 1014.39 1014.23 1014.15 1013.95 1013.71 1013.47 1013.15 1012.87 1012.59 1012.27 1011.99 1011.71 1011.51 1011.39 1011.11 1010.83 1010.59 1010.51 1010.23 1010.15 1010.03 1009.83 1009.67 1009.35 1009.07 1008.95 1008.71 1008.47 1008.15 1007.63 1007.27 1007.03 1006.87 1006.67 1006.39 1006.19 1006.03 1005.91 1005.99
1018.23 1018.07 1017.87 1017.67 1017.43 1017.23 1017.19 1017.07 1017.03 1016.95 1016.87 1016.51 1016.19 1016.07 1015.95 1015.91 1015.91 1016.03 1015.75 1015.27 1015.07 1014.87 1014.75 1014.59 1014.47 1014.35 1014.15 1013.95 1013.71 1013.43 1013.11 1012.87 1012.55 1012.19 1011.91 1011.63 1011.39 1011.23 1010.99 1010.79 1010.51 1010.35 1010.11 1009.95 1009.79 1009.55 1009.39 1009.19 1008.95 1008.79 1008.59 1008.35 1007.99 1007.63 1007.23 1006.95 1006.79 1006.59 1006.27 1005.99 1005.79 1005.63 1005.55
1018.55 1018.35 1018.23 1017.99 1017.67 1017.39 1017.31 1017.19 1017.11 1017.03 1016.91 1016.79 1016.47 1016.35 1016.23 1016.15 1015.95 1015.83 1015.55 1015.35 1015.07 1014.87 1014.71 1014.59 1014.47 1014.31 1014.11 1013.91 1013.63 1013.31 1013.07 1012.87 1012.59 1012.19 1011.83 1011.59 1011.35 1011.07 1010.79 1010.51 1010.35 1010.15 1009.95 1009.75 1009.59 1009.39 1009.15 1008.99 1008.83 1008.63 1008.47 1008.27 1007.87 1007.43 1007.11 1006.87 1006.67 1006.47 1006.23 1005.95 1005.75 1005.55 1005.31
1018.75 1018.51 1018.19 1017.95 1017.67 1017.51 1017.43 1017.31 1017.23 1017.07 1017.03 1016.99 1016.79 1016.67 1016.51 1016.35 1016.11 1015.83 1015.63 1015.39 1015.15 1014.95 1014.79 1014.67 1014.47 1014.31 1014.07 1013.83 1013.59 1013.31 1013.03 1012.79 1012.39 1012.15 1011.95 1011.59 1011.31 1011.07 1010.67 1010.31 1010.11 1009.99 1009.79 1009.55 1009.35 1009.23 1008.99 1008.79 1008.59 1008.47 1008.31 1008.11 1007.79 1007.47 1007.15 1006.75 1006.43 1006.27 1006.15 1005.91 1005.67 1005.47 1005.27
1018.75 1018.55 1018.27 1018.07 1017.75 1017.59 1017.67 1017.55 1017.39 1017.23 1017.15 1017.19 1017.03 1016.91 1016.91 1016.75 1016.23 1015.99 1015.79 1015.55 1015.31 1015.11 1014.99 1014.75 1014.47 1014.23 1014.03 1013.75 1013.51 1013.27 1012.91 1012.67 1012.39 1012.15 1011.87 1011.55 1011.15 1010.83 1010.59 1010.35 1009.95 1009.67 1009.31 1008.91 1008.79 1008.75 1008.67 1008.47 1008.23 1007.95 1007.71 1007.67 1007.59 1007.51 1007.23 1006.71 1006.31 1005.83 1005.59 1005.59 1005.63 1005.63 1005.67
1018.79 1018.59 1018.35 1018.03 1017.83 1017.75 1017.75 1017.67 1017.55 1017.47 1017.39 1017.31 1017.07 1016.91 1016.79 1016.55 1016.35 1016.19 1015.95 1015.71 1015.51 1015.31 1015.15 1014.83 1014.55 1014.31 1014.11 1013.83 1013.55 1013.23 1012.91 1012.59 1012.31 1012.03 1011.79 1011.55 1011.19 1010.71 1010.11 1009.63 1009.55 1009.35 1009.15 1008.71 1008.19 1008.07 1007.95 1007.99 1007.99 1007.55 1007.35 1007.31 1007.03 1006.91 1006.99 1006.63 1005.83 1005.43 1005.67 1005.83 1005.87 1005.71 1005.55
1018.95 1018.75 1018.51 1018.19 1018.11 1018.03 1017.99 1017.87 1017.67 1017.63 1017.55 1017.43 1017.23 1017.11 1016.91 1016.67 1016.59 1016.47 1016.19 1015.95 1015.71 1015.51 1015.23 1014.91 1014.63 1014.39 1014.19 1013.91 1013.63 1013.27 1012.87 1012.59 1012.31 1011.95 1011.71 1011.43 1011.15 1010.75 1010.31 1009.59 1008.83 1008.71 1008.59 1008.35 1008.03 1007.79 1007.67 1007.51 1007.35 1007.19 1007.11 1007.23 1007.03 1006.35 1006.15 1006.03 1005.79 1005.59 1005.55 1005.71 1005.83 1005.71 1005.51
1018.83 1018.71 1018.55 1018.35 1018.31 1018.23 1018.15 1018.07 1017.95 1017.91 1017.83 1017.67 1017.55 1017.43 1017.15 1016.91 1016.83 1016.67 1016.39 1016.07 1015.79 1015.47 1015.27 1014.95 1014.75 1014.59 1014.35 1014.03 1013.63 1013.15 1012.79 1012.55 1012.23 1011.91 1011.63 1011.35 1011.03 1010.71 1010.35 1009.95 1009.39 1008.43 1007.99 1007.95 1007.71 1007.47 1007.31 1007.19 1007.03 1006.79 1006.59 1006.51 1006.71 1006.71 1006.19 1005.79 1005.59 1005.47 1005.51 1005.71 1005.79 1005.67 1005.39
Wind_Speed
5 4 3 3 3 3 5 5 3 3 3 4 6 6 6 6 5 7 7 7 8 10 12 14 11 10 15 12 5 3 7 7 7 6 7 7 7 7 6 6 6 6 6 6 5 5 5 4 5 5 7 8 8 6 5 6 7 6 6 7 7 6 6
3 4 6 6 7 6 6 5 3 3 4 4 7 7 6 6 6 7 7 8 10 12 13 11 1 7 9 13 9 6 5 6 6 6 6 6 6 7 6 6 6 7 6 5 4 4 3 4 5 6 8 6 5 5 7 7 8 7 6 6 6 6 5
5 6 7 7 7 7 7 7 6 5 5 4 3 4 5 6 6 7 8 11 14 11 8 4 7 8 8 9 10 9 6 5 5 6 7 6 7 7 6 5 6 6 5 5 4 4 4 4 5 7 6 6 7 7 7 6 5 6 6 6 6 6 6
7 7 6 6 6 5 5 5 6 5 3 4 4 4 5 7 6 9 8 9 11 7 4 3 3 4 4 7 9 9 8 7 6 6 7 6 7 6 6 5 5 4 5 5 5 4 4 4 6 6 7 6 7 7 7 7 7 8 7 7 7 7 6
5 4 5 6 5 4 4 4 6 6 6 6 5 5 6 5 8 8 5 5 8 7 3 1 2 1 1 3 6 7 8 8 8 7 7 7 7 6 6 7 6 6 6 4 4 4 4 5 6 6 6 7 8 7 7 7 8 7 6 6 6 6 6
4 4 4 4 3 4 4 5 6 6 7 8 8 8 8 8 8 8 5 5 6 5 6 4 1 2 2 3 5 7 9 10 9 8 7 7 7 7 7 7 7 7 6 7 5 5 4 3 5 6 6 5 6 8 7 8 7 7 7 6 6 6 5
3 3 3 3 3 3 4 4 4 5 5 5 5 4 3 5 6 3 3 6 6 7 6 3 2 2 2 5 6 7 9 9 8 8 7 7 7 8 8 7 7 7 7 4 5 5 4 4 4 4 4 4 5 7 8 8 8 8 8 7 7 6 6
3 4 4 3 3 3 2 2 1 1 2 2 3 4 4 5 3 3 6 6 6 5 5 3 5 4 4 6 7 8 7 8 12 10 10 9 7 7 7 6 5 5 5 6 6 4 5 5 4 4 4 4 4 5 7 8 8 8 7 8 7 7 5
3 3 3 2 2 2 2 2 2 2 2 3 3 4 5 5 3 3 4 5 5 6 5 5 6 5 7 7 8 9 8 10 9 8 6 5 8 9 9 7 7 4 5 5 5 4 4 5 5 5 5 5 5 4 5 6 7 6 7 8 8 8 7
3 3 1 0 1 0 1 1 2 2 3 3 3 4 5 5 5 6 6 6 7 10 12 2 3 7 6 7 8 4 7 6 8 9 7 5 4 6 8 8 9 10 7 6 5 5 4 4 5 4 5 5 4 5 5 5 5 5 6 7 7 8 8
3 3 2 2 2 2 2 3 4 4 3 3 3 4 4 5 5 5 5 5 5 2 6 11 1 5 5 7 7 1 4 5 8 10 10 6 4 5 5 5 5 7 12 10 6 4 3 3 3 4 4 5 5 5 5 5 5 6 6 6 6 7 7
4 3 3 3 1 2 3 2 2 3 4 3 3 3 4 4 4 4 5 6 5 3 3 7 9 7 5 5 5 6 2 9 7 9 8 7 4 5 6 5 5 7 8 10 9 7 4 4 3 3 3 3 3 4 4 4 5 4 5 7 7 6 7
3 3 3 2 2 0 1 1 1 1 1 1 1 2 2 3 4 4 4 4 4 2 1 4 5 6 6 6 6 6 6 3 2 4 5 6 6 2 3 4 3 6 9 9 8 8 6 3 2 2 2 3 4 5 4 5 4 6 7 6 6 6 7
3 1 1 1 0 0 1 1 1 1 1 1 2 2 3 2 2 3 2 2 1 1 1 3 5 6 6 5 6 6 7 6 5 5 5 4 4 3 3 4 4 7 8 7 7 6 6 5 3 2 2 4 5 6 6 6 6 7 8 8 7 7 8
4 4 4 3 3 3 3 3 2 1 0 1 1 3 4 4 4 3 2 1 1 1 0 2 1 3 6 7 6 6 6 5 4 4 6 6 6 6 5 5 6 5 3 3 3 4 4 2 4 5 6 7 8 9 8 8 9 8 7 7 8 7 8
4 5 5 5 6 6 5 4 3 3 1 1 2 4 4 4 4 4 2 1 0 0 1 0 0 1 4 5 6 6 5 5 4 4 5 6 7 7 6 6 6 6 6 5 3 4 2 2 2 4 9 10 9 8 6 6 5 7 13 11 7 7 8
6 7 5 5 4 4 4 3 3 2 0 1 1 2 4 3 3 3 3 3 3 2 2 0 1 2 3 5 5 6 6 5 5 4 4 5 6 6 7 7 7 7 6 6 5 4 3 3 6 10 10 10 7 5 5 6 6 12 12 12 15 11 8
8 6 5 5 5 2 3 3 2 1 0 1 1 3 4 4 4 4 4 4 4 4 2 3 3 3 4 4 5 5 6 5 5 5 5 4 5 6 6 7 7 7 7 6 6 5 3 4 7 10 9 6 7 8 7 6 9 9 10 14 15 16 10
5 5 7 2 2 4 1 3 2 1 1 3 3 3 4 4 4 4 4 4 4 4 5 5 5 4 4 4 4 5 5 5 5 5 6 6 5 5 6 6 7 8 7 8 6 5 5 5 6 8 7 5 6 7 8 8 11 9 9 9 11 13 14
2 2 3 4 3 4 4 2 1 1 2 3 4 4 4 3 2 4 4 4 4 4 4 4 5 5 6 5 4 4 4 4 5 5 6 6 6 6 6 6 7 7 7 7 7 6 7 6 7 7 7 7 8 8 7 8 11 12 10 9 10 11 11
8 6 6 7 5 3 1 0 1 3 4 5 4 4 6 8 7 5 6 5 5 5 5 5 5 5 5 6 5 4 4 4 4 5 6 6 6 6 6 6 6 7 7 7 7 7 8 7 7 7 6 7 7 7 8 8 13 12 12 12 13 12 11
4 4 5 4 4 2 0 1 2 4 4 2 5 6 5 4 4 5 5 5 5 5 6 6 7 7 5 5 5 5 4 4 4 4 5 6 6 6 7 7 7 7 7 7 7 7 7 7 6 8 8 6 6 6 8 8 11 12 13 14 14 12 6
4 3 5 4 4 2 2 1 4 4 4 4 5 5 4 3 4 3 4 4 4 5 5 6 7 8 7 6 6 6 5 4 4 4 4 5 6 6 7 7 8 8 6 6 7 6 5 8 9 8 8 7 5 6 7 7 9 11 14 13 12 7 6
9 7 4 2 2 1 2 4 6 5 6 4 3 1 2 3 3 2 3 4 4 5 5 6 7 7 7 8 7 7 7 5 4 5 4 4 5 6 7 7 7 7 7 7 7 6 7 8 9 9 8 7 6 6 7 6 7 11 13 14 13 11 8
6 5 4 4 5 6 4 4 4 4 4 3 3 3 3 3 3 5 5 5 5 4 5 6 6 7 8 9 8 7 7 7 6 5 5 5 5 5 7 7 7 8 7 7 7 7 7 8 8 9 8 7 6 10 10 7 7 11 14 15 14 11 8
5 4 4 4 4 4 3 3 5 6 4 4 4 4 4 4 4 4 5 5 4 5 5 6 6 7 7 8 8 8 8 7 8 7 6 6 6 5 6 6 6 7 8 8 7 8 7 7 7 8 9 8 6 6 7 8 8 7 13 14 15 14 9
2 3 4 4 4 4 4 3 3 3 3 3 4 3 3 3 4 4 4 4 4 6 6 6 6 6 7 7 7 8 9 8 8 10 9 6 6 5 5 5 6 7 7 8 8 7 8 9 8 7 9 8 8 7 7 7 8 9 11 12 14 14 12
8 8 6 5 6 5 4 4 4 5 6 5 4 3 3 3 4 4 4 4 6 7 7 6 6 6 6 7 7 7 8 9 9 9 9 8 7 7 5 5 5 6 7 7 7 8 9 8 8 8 8 8 8 7 8 8 11 9 11 12 13 14 16
4 4 5 7 8 9 8 7 7 7 5 5 4 4 4 4 4 4 4 5 7 7 6 6 5 6 6 6 7 7 8 8 9 9 8 9 9 8 8 6 5 6 6 6 6 7 8 9 8 7 8 8 8 7 7 6 7 11 10 13 12 14 15
4 5 5 6 6 6 6 6 5 5 4 4 4 5 5 4 4 4 4 6 6 6 5 5 5 5 6 6 6 7 8 8 9 9 8 9 9 8 9 8 6 5 6 6 6 7 7 7 7 7 7 8 9 8 6 5 6 8 12 12 14 13 15
5 4 4 4 4 5 4 4 5 5 5 5 5 5 5 4 4 5 5 6 5 5 5 5 5 5 6 6 7 7 7 8 8 9 8 8 8 8 9 9 8 7 6 6 7 7 6 6 6 6 7 8 9 9 8 7 6 6 9 13 14 15 14
6 5 5 5 5 5 3 3 4 4 6 7 6 6 5 5 4 5 6 5 4 5 5 5 5 6 6 7 7 7 8 8 9 9 8 8 7 8 8 8 8 8 8 7 6 6 6 6 6 6 7 7 8 9 9 8 7 7 7 8 9 11 13
5 5 6 6 5 4 4 3 4 4 5 6 6 6 5 5 5 6 5 4 6 5 6 5 5 6 6 7 7 7 7 8 8 8 8 8 8 7 7 7 7 8 8 7 7 7 6 6 7 7 7 7 8 8 8 8 7 7 6 6 7 7 7
5 5 6 5 5 4 4 5 4 5 5 5 6 6 6 6 7 7 5 6 7 7 6 6 6 6 6 8 7 7 8 8 13 12 8 8 8 8 9 8 7 7 8 8 8 8 8 7 7 7 7 7 8 8 8 9 8 7 6 6 6 7 6
4 4 5 6 6 5 5 5 6 5 5 5 5 6 7 7 6 6 7 8 8 8 7 7 7 8 7 7 7 8 8 8 7 8 8 8 9 8 7 8 9 9 9 8 7 7 7 8 8 8 8 7 7 8 9 9 9 8 3 4 4 5 4
5 6 6 6 5 5 5 6 5 5 5 4 4 4 5 6 5 7 9 8 8 9 9 9 8 7 8 7 8 8 8 8 8 8 8 8 9 10 10 10 11 10 9 9 12 15 15 11 9 10 9 8 8 7 8 9 10 10 8 8 7 8 7
5 5 6 6 6 5 4 4 5 5 6 6 6 7 7 6 7 9 9 9 9 9 10 8 7 7 7 8 8 9 10 8 8 7 7 7 8 8 10 11 11 10 13 14 15 15 16 16 16 16 15 10 9 10 13 14 16 17 16 13 10 10 12
5 4 4 4 5 4 5 6 7 7 7 6 7 7 8 7 8 10 8 8 9 9 9 9 7 7 8 9 9 10 9 8 8 8 8 8 8 8 9 9 11 12 10 10 13 14 15 15 15 16 15 14 11 9 9 12 14 15 10 5 5 9 11
Wind_Direction
92 92 66 54 40 345 312 319 354 5 349 341 346 6 15 6 0 349 16 47 70 67 58 44 17 333 316 305 286 189 195 204 216 225 232 237 236 240 244 242 240 239 236 229 224 212 215 201 198 179 182 195 208 209 213 212 217 210 195 195 196 206 226
82 75 60 47 46 34 16 2 8 358 341 18 345 349 10 29 16 20 28 38 40 49 61 74 42 259 261 277 288 273 242 228 223 235 237 241 238 238 234 243 236 243 241 236 229 224 214 207 192 193 199 191 203 202 213 207 203 200 199 205 204 208 214
40 47 52 46 38 33 22 17 22 14 0 22 11 353 349 9 19 25 34 48 53 50 49 130 183 234 259 285 291 286 281 265 251 245 245 242 244 245 245 240 240 241 245 253 237 226 213 200 213 206 207 193 200 203 212 206 204 211 205 200 206 207 206
49 52 51 49 49 41 32 9 1 355 15 30 23 5 7 16 24 34 39 73 92 95 110 233 174 231 267 293 299 294 282 265 250 246 250 248 248 249 250 249 246 245 253 246 247 239 226 176 219 216 196 201 203 208 208 206 200 203 201 192 198 204 205
55 60 60 47 38 33 32 19 356 347 355 8 23 24 13 21 41 39 30 66 89 97 106 80 86 238 288 274 280 286 283 271 255 242 240 239 238 238 241 244 242 240 239 244 244 247 238 213 206 216 208 193 197 198 203 205 205 201 206 204 200 199 202
71 64 58 55 43 27 18 19 9 356 350 356 7 17 14 16 29 23 352 27 48 59 67 40 30 38 327 279 274 278 280 266 250 243 237 233 233 238 235 234 235 242 242 237 237 235 236 219 210 210 211 206 190 186 191 199 200 197 207 208 210 202 195
80 70 64 54 50 30 21 11 3 356 349 345 354 16 29 35 45 25 357 32 27 24 46 62 318 12 316 285 273 274 284 285 271 258 244 237 232 238 243 241 236 232 235 238 239 231 231 223 220 219 216 209 206 185 182 191 193 195 200 205 205 205 199
64 69 51 53 44 31 360 347 336 311 310 316 341 3 23 42 25 34 50 32 15 3 355 41 8 354 287 284 274 269 276 338 346 338 332 317 292 258 243 245 235 225 227 231 236 211 219 222 223 226 222 219 222 212 195 196 198 195 193 199 201 201 196
80 82 94 89 82 25 335 326 322 316 333 347 3 360 13 18 33 26 37 43 19 358 330 346 336 310 304 292 292 294 12 1 328 322 329 310 298 298 297 288 278 251 236 241 240 223 207 219 224 221 221 229 225 226 219 205 204 203 199 202 200 199 199
128 112 104 119 91 9 327 331 329 352 3 1 12 21 19 23 28 33 36 43 26 357 333 63 128 304 296 282 280 329 8 334 316 310 307 317 303 292 292 310 317 320 295 265 262 250 233 210 225 229 219 218 224 223 226 222 212 208 207 208 207 208 207
144 163 151 96 65 36 26 27 22 2 349 357 14 17 22 33 34 39 49 56 75 341 312 315 73 168 259 282 288 147 149 321 307 302 305 297 298 313 314 302 291 287 292 289 272 254 239 237 217 229 229 227 225 221 221 219 223 220 218 216 215 216 218
131 124 113 115 101 51 31 346 336 13 27 24 16 12 16 23 32 36 47 58 54 77 259 280 301 315 311 294 292 317 164 172 237 271 277 292 281 288 285 273 268 275 278 288 294 286 255 239 225 226 238 244 241 231 231 222 192 221 239 228 218 214 223
135 129 128 118 108 324 328 17 14 78 54 40 26 8 10 19 28 37 58 55 65 58 309 289 296 309 337 343 332 332 341 18 200 223 260 293 296 226 228 262 249 249 255 266 268 277 282 272 237 220 233 251 245 243 230 225 217 188 206 230 229 220 218
154 206 227 225 187 84 136 208 199 132 83 21 350 348 8 9 64 62 88 124 164 69 354 319 322 329 335 344 344 331 332 338 343 342 329 307 310 304 262 264 222 230 237 212 227 250 272 283 304 315 263 249 241 237 219 208 207 209 208 207 211 215 216
172 196 200 190 188 184 182 189 191 186 119 322 345 356 351 3 11 30 38 134 162 186 205 258 296 321 336 339 343 335 320 324 329 329 331 329 332 331 325 313 308 295 278 255 247 250 256 339 341 318 285 251 237 228 216 210 215 213 211 213 216 211 218
188 196 201 199 187 184 191 195 210 194 200 343 355 1 353 343 334 332 337 320 261 235 264 197 216 298 326 328 328 329 324 311 314 318 322 324 323 320 316 315 315 313 310 304 269 256 222 176 221 239 245 247 246 241 234 235 237 237 227 225 227 227 223
200 208 212 213 211 210 213 226 206 162 111 347 328 303 323 305 291 302 326 329 316 307 303 327 27 342 326 320 314 321 327 324 318 319 322 317 310 308 309 310 312 311 308 305 299 282 274 185 205 241 246 254 267 271 253 239 232 230 223 222 230 230 229
200 208 215 224 224 213 255 268 342 43 127 285 259 284 311 315 318 350 333 326 332 326 335 12 14 354 328 316 314 316 321 317 317 325 322 317 310 302 294 297 305 305 303 303 302 300 274 248 227 239 247 248 253 256 258 256 249 241 221 219 222 231 232
188 196 204 239 127 186 256 4 75 141 254 257 267 287 302 320 348 335 322 329 316 343 353 350 353 347 334 322 317 314 315 314 314 313 315 316 309 302 292 285 292 298 299 295 294 301 289 265 231 245 256 254 255 258 263 272 269 261 259 251 235 231 234
262 356 37 55 78 89 107 138 126 228 245 274 300 311 318 342 344 341 343 340 340 347 330 343 342 341 330 330 330 319 312 307 309 307 302 302 308 310 302 285 275 277 284 287 291 289 282 273 257 256 254 252 255 263 266 260 267 264 257 243 236 230 229
25 15 66 84 86 105 118 175 272 287 324 349 350 7 24 24 15 7 355 350 341 333 338 343 339 335 328 326 324 329 319 308 304 304 299 298 300 306 305 294 283 275 275 278 279 275 275 273 269 265 259 257 252 254 261 264 268 268 263 257 244 233 229
20 55 105 118 112 133 171 287 313 349 6 359 50 45 42 22 1 2 331 332 333 336 345 343 338 330 326 321 318 318 320 315 308 299 300 299 299 300 299 299 290 282 277 272 270 267 271 279 269 269 266 257 256 255 259 263 265 263 262 257 254 245 233
1 74 140 157 152 189 221 289 13 54 84 67 57 50 19 347 343 335 316 324 332 352 343 341 333 325 321 320 314 314 314 313 307 303 297 297 298 297 295 294 296 293 282 275 270 274 307 290 280 271 269 265 249 245 254 262 254 245 248 250 239 231 239
26 20 37 149 240 310 15 38 60 68 76 63 34 354 316 302 290 301 340 341 344 347 336 334 321 313 312 312 314 312 313 309 306 302 297 292 290 289 289 287 285 285 286 281 280 259 236 252 268 269 263 260 253 241 259 258 250 236 237 242 238 226 235
34 38 34 33 32 47 44 45 66 78 70 64 5 290 272 286 335 4 352 340 338 331 326 318 308 307 306 307 308 310 310 309 305 299 296 290 281 278 281 283 284 284 287 285 281 270 254 251 256 266 270 260 250 259 263 261 253 230 230 235 239 232 230
23 11 23 24 32 49 69 51 43 24 20 359 321 300 320 352 6 1 352 330 327 321 309 300 294 292 294 300 306 309 310 311 312 308 303 295 287 277 268 270 282 285 288 287 285 284 277 264 257 262 270 272 263 253 249 257 261 243 224 230 234 228 225
353 20 28 25 16 19 28 37 55 9 326 313 311 335 348 15 15 350 329 314 314 304 289 286 291 296 299 303 306 310 312 313 310 308 307 299 284 274 276 280 278 281 286 288 288 287 286 283 275 267 269 272 269 257 249 242 258 265 245 231 226 224 216
6 10 7 3 4 7 12 3 357 349 356 358 0 358 357 3 1 327 310 310 300 288 283 291 297 301 306 305 304 305 306 309 310 308 307 307 306 302 290 274 272 271 275 280 284 287 285 283 281 275 272 274 272 267 261 254 253 266 267 245 225 217 211
22 13 3 358 356 357 4 4 358 356 352 343 340 340 332 347 332 319 313 305 291 289 294 302 309 308 306 304 303 306 307 307 308 308 310 309 309 307 304 297 284 279 279 280 283 285 285 285 284 280 282 282 278 271 264 262 262 261 261 262 242 225 216
22 13 12 9 14 4 4 356 352 349 335 328 330 330 329 333 324 317 317 305 301 310 317 319 313 311 310 308 308 307 308 308 308 307 306 305 305 305 306 307 298 280 276 282 283 282 282 284 285 284 282 283 285 283 272 262 261 260 256 260 257 242 226
26 14 13 10 359 352 358 355 345 333 328 323 325 332 332 334 335 325 322 312 323 325 326 320 317 318 313 311 307 307 305 307 307 307 306 304 305 306 309 307 307 303 293 289 283 277 273 272 279 284 283 284 283 287 289 282 271 265 264 259 261 258 244
13 1 353 353 351 347 346 352 350 345 340 330 330 334 338 338 343 335 315 317 326 322 324 321 322 320 316 310 308 306 308 308 308 306 302 307 307 303 299 301 305 303 300 291 276 272 274 276 278 279 279 275 279 282 283 285 284 276 268 272 267 266 257
360 351 339 337 324 332 347 349 352 343 342 342 336 341 341 344 340 328 319 327 321 321 319 319 313 311 310 308 307 308 310 311 304 307 313 313 309 303 301 300 299 298 298 294 286 279 275 281 283 280 274 273 275 279 284 283 283 281 274 263 265 267 269
348 340 335 323 324 344 343 340 347 346 345 347 347 349 344 344 336 325 330 334 330 325 323 319 315 313 306 307 310 311 312 308 313 318 310 309 310 308 308 302 298 297 294 297 295 289 286 283 283 280 274 276 276 279 282 283 281 278 274 270 261 262 263
341 339 336 344 339 350 352 352 356 356 360 1 0 0 349 318 316 349 351 346 344 339 332 326 323 321 311 311 313 313 312 310 309 310 311 309 307 300 291 294 301 298 291 284 269 263 272 278 278 277 276 270 269 272 278 280 280 274 266 297 327 320 307
341 343 341 336 340 355 13 13 7 9 1 358 343 339 325 327 351 1 356 350 350 343 335 329 327 325 322 315 313 311 313 315 313 312 311 310 308 309 306 295 283 272 282 289 287 283 277 270 268 272 281 283 271 259 261 271 277 290 309 313 316 304 258
338 339 343 345 360 4 14 9 4 7 1 359 354 349 343 342 16 2 353 349 344 337 330 321 327 331 326 321 315 311 315 317 313 312 309 309 311 311 313 316 316 286 262 261 274 275 277 279 275 274 270 254 272 276 264 264 275 285 287 299 289 262 261
338 341 346 2 8 3 7 14 13 8 1 2 3 354 346 355 11 353 343 340 337 333 331 327 331 336 329 321 311 313 326 322 320 319 320 318 318 318 320 321 318 317 312 285 273 275 272 271 273 276 281 280 261 259 292 282 272 271 286 308 284 262 257